sat.trackr.live / text

‹ back to catalog

UNKNOWN

NORAD 81640

UNKNOWN UNKNOWN UNKNOWN

§ Identity

Operator
Country
Launch date
Launch site
Launch vehicle
Mass (kg)
RCS (m²)

External: N2YO · Heavens-Above

§ Orbital elements

Epoch: 2026-09-15T13:54:30.047616Z

Period
114.52 min
Inclination
65.8232°
Eccentricity
0.0988857
Mean motion
12.57384785 rev/d
Perigee alt
661.3 km
Apogee alt
2,206.2 km
Semi-major
7,811.9 km
B*
2.1455e-4
RAAN
285.8050°
Arg perigee
325.1420°
Mean anomaly
28.8467°
Rev number
54,488

§ Raw data

UNKNOWN1 81640U          26258.57951444  .00000184  00000+0  21455-3 0  99932 81640  65.8232 285.8050 0988857 325.1420  28.8467 12.57384785544881

JSON: /api/v1/satellites/81640 · /tle

For live sub-satellite position, see the globe view (requires WebGL).

§ Visibility from observer

Set your observer location to see the next 7 days of passes ≥ 10°. The values pass through the URL so the page stays shareable.

No JS? Fill the form by hand. The geolocation button needs JavaScript.